Weather History for Mobile, AL

Change the Weather History Date:

Sunday, December 9, 2012

  Actual Average Record
Temperature  
Mean Temperature 64 °F 54 °F  
Max Temperature 74 °F 64 °F 80 °F (1986)
Min Temperature 54 °F 43 °F 22 °F (1917)
Degree Days  
Heating Degree Days 1 12  
Month to date heating degree days 4 101  
Since 1 July heating degree days 317 359  
Cooling Degree Days 0 0  
Month to date cooling degree days 9 8  
Year to date cooling degree days 2706 2511  
Growing Degree Days 15 (Base 50)    
Moisture  
Dew Point 62 °F    
Average Humidity 84    
Maximum Humidity 100    
Minimum Humidity 68    
Precipitation  
Precipitation 0.00 in 0.16 in 2.78 in (1952)
Month to date precipitation 0.14 1.45  
Year to date precipitation 65.76 62.54  
Snow  
Snow 0.00 in 0.00 in 0.00 in (2002)
Month to date snowfall 0.0 0.0  
Since 1 July snowfall 0.0 0.0  
Snow Depth 0.00 in    
Sea Level Pressure  
Sea Level Pressure 30.00 in    
Wind  
Wind Speed 8 mph (SSE)    
Max Wind Speed 15 mph    
Max Gust Speed 20 mph    
Visibility 6 miles    
Events Fog    
T = Trace of Precipitation, MM = Missing Value Source: NWS Daily Summary

Daily Weather History Graph

Daily Weather History Graph

Search for Another Location

Airport:

Trip Planner

Search our weather history database for the weather conditions in past years. The results will help you decide how hot, cold, wet, or windy it might be!

Date:

Astronomy

Dec. 09, 2012 Rise Set
Actual Time 6:39 AM CST 4:51 PM CST
Civil Twilight 6:12 AM CST 5:18 PM CST
Nautical Twilight 5:42 AM CST 5:48 PM CST
Astronomical Twilight 5:13 AM CST 6:17 PM CST
Moon 2:24 AM CST (12/9) 1:48 PM CST (12/9)
Length of Visible Light 11h 05m
Length of Day
10h 12m
Waning Crescent, 18% of the Moon is Illuminated
Dec 9
Waning Crescent
Dec 13
New
Dec 19
First Quarter
Dec 28
Full
Jan 4
Last Quarter

Hourly Weather History & Observations

Time (CST) Temp. Dew Point Humidity Pressure Visibility Wind Dir Wind Speed Gust Speed Precip Events Conditions
12:56 AM 57.0 °F 55.0 °F 93% 30.00 in 0.5 mi Calm Calm - N/A Fog Fog
1:05 AM 55.4 °F 55.4 °F 100% 30.01 in 0.2 mi Calm Calm - N/A Fog Fog
1:56 AM 57.0 °F 55.0 °F 93% 29.99 in 0.2 mi Calm Calm - N/A Fog Fog
2:17 AM 55.4 °F 53.6 °F 94% 29.99 in 0.8 mi SSE 3.5 mph - N/A   Mist
2:26 AM 55.4 °F 53.6 °F 94% 29.99 in 0.5 mi SSE 5.8 mph - N/A Fog Fog
2:33 AM 55.4 °F 53.6 °F 94% 29.99 in 3.0 mi SSE 4.6 mph - N/A   Mostly Cloudy
2:56 AM 57.0 °F 55.0 °F 93% 29.99 in 3.0 mi SSE 3.5 mph - N/A   Mostly Cloudy
3:03 AM 55.4 °F 55.4 °F 100% 30.00 in 3.0 mi Calm Calm - N/A   Scattered Clouds
3:42 AM 57.2 °F 55.4 °F 94% 30.00 in 1.0 mi Calm Calm - N/A   Scattered Clouds
3:56 AM 55.9 °F 55.0 °F 97% 30.00 in 1.0 mi ESE 3.5 mph - N/A   Scattered Clouds
4:47 AM 57.2 °F 55.4 °F 94% 30.01 in 0.5 mi SE 4.6 mph - N/A Fog Fog
4:56 AM 57.0 °F 55.0 °F 93% 30.01 in 0.2 mi SSE 4.6 mph - N/A Fog Fog
5:01 AM 57.2 °F 55.4 °F 94% 30.01 in 0.5 mi SE 4.6 mph - N/A Fog Fog
5:13 AM 59.0 °F 57.2 °F 94% 30.01 in 0.2 mi SE 4.6 mph - N/A Fog Fog
5:25 AM 59.0 °F 57.2 °F 94% 30.02 in 0.2 mi SE 4.6 mph - N/A Fog Fog
5:56 AM 60.1 °F 59.0 °F 96% 30.02 in 0.2 mi SSE 3.5 mph - N/A Fog Fog
6:56 AM 59.0 °F 57.9 °F 96% 30.04 in 0.2 mi Calm Calm - N/A Fog Fog
7:56 AM 62.1 °F 61.0 °F 96% 30.05 in 0.2 mi SE 4.6 mph - N/A Fog Fog
8:07 AM 62.6 °F 62.6 °F 100% 30.06 in 0.5 mi SE 3.5 mph - N/A Fog Fog
8:12 AM 62.6 °F 62.6 °F 100% 30.06 in 2.0 mi SE 4.6 mph - N/A   Mostly Cloudy
8:18 AM 62.6 °F 62.6 °F 100% 30.06 in 4.0 mi SE 5.8 mph - N/A   Mostly Cloudy
8:37 AM 64.4 °F 62.6 °F 94% 30.06 in 6.0 mi SE 5.8 mph - N/A   Mostly Cloudy
8:56 AM 64.9 °F 64.0 °F 97% 30.06 in 7.0 mi SE 8.1 mph - N/A   Mostly Cloudy
9:56 AM 70.0 °F 62.1 °F 76% 30.06 in 10.0 mi SSE 9.2 mph - N/A   Mostly Cloudy
10:56 AM 71.1 °F 63.0 °F 75% 30.05 in 10.0 mi SSE 9.2 mph - N/A   Mostly Cloudy
11:13 AM 71.6 °F 62.6 °F 73% 30.05 in 10.0 mi SSE 6.9 mph - N/A   Mostly Cloudy
11:56 AM 73.0 °F 63.0 °F 71% 30.02 in 10.0 mi South 11.5 mph - N/A   Mostly Cloudy
12:56 PM 72.0 °F 64.0 °F 76% 29.99 in 10.0 mi SSE 8.1 mph - N/A   Overcast
1:56 PM 73.9 °F 64.9 °F 73% 29.98 in 10.0 mi SSE 11.5 mph - N/A   Overcast
2:56 PM 73.0 °F 64.9 °F 76% 29.97 in 10.0 mi SSE 11.5 mph - N/A   Mostly Cloudy
3:56 PM 72.0 °F 66.0 °F 81% 29.97 in 10.0 mi SSE 11.5 mph - N/A   Overcast
4:48 PM 71.6 °F 66.2 °F 83% 29.97 in 10.0 mi SSE 11.5 mph - N/A   Overcast
4:56 PM 71.1 °F 66.0 °F 84% 29.97 in 10.0 mi SSE 9.2 mph - N/A   Overcast
5:16 PM 69.8 °F 66.2 °F 88% 29.97 in 10.0 mi SSE 9.2 mph - N/A   Mostly Cloudy
5:48 PM 71.6 °F 66.2 °F 83% 29.97 in 10.0 mi South 8.1 mph - N/A   Overcast
5:56 PM 70.0 °F 66.9 °F 90% 29.97 in 10.0 mi SSE 6.9 mph - N/A   Overcast
6:43 PM 69.8 °F 66.2 °F 88% 29.98 in 10.0 mi SSE 9.2 mph - N/A   Overcast
6:56 PM 70.0 °F 66.9 °F 90% 29.97 in 10.0 mi South 8.1 mph - N/A   Mostly Cloudy
7:19 PM 69.8 °F 66.2 °F 88% 29.98 in 10.0 mi SSE 9.2 mph - N/A   Mostly Cloudy
7:48 PM 69.8 °F 66.2 °F 88% 29.98 in 10.0 mi South 10.4 mph - N/A   Mostly Cloudy
7:56 PM 71.1 °F 66.9 °F 87% 29.97 in 10.0 mi South 11.5 mph - N/A   Mostly Cloudy
8:41 PM 69.8 °F 66.2 °F 88% 29.97 in 10.0 mi South 12.7 mph - N/A   Mostly Cloudy
8:51 PM 69.8 °F 66.2 °F 88% 29.97 in 10.0 mi South 13.8 mph - N/A   Mostly Cloudy
8:56 PM 70.0 °F 66.9 °F 90% 29.96 in 10.0 mi South 11.5 mph - N/A   Mostly Cloudy
9:37 PM 69.8 °F 66.2 °F 88% 29.96 in 10.0 mi South 11.5 mph - N/A   Overcast
9:56 PM 70.0 °F 66.9 °F 90% 29.96 in 8.0 mi South 12.7 mph - N/A   Overcast
10:56 PM 70.0 °F 66.0 °F 87% 29.95 in 8.0 mi South 11.5 mph - N/A   Overcast
11:27 PM 69.8 °F 66.2 °F 88% 29.95 in 8.0 mi South 11.5 mph 18.4 mph N/A   Overcast
11:56 PM 70.0 °F 66.0 °F 87% 29.94 in 8.0 mi South 12.7 mph 18.4 mph N/A   Overcast